Madison Heights, VA (24572)

10:16 PM EDT on August 27, 2016 (GMT -0400)
Concord Turnpike | | Change Station

Elev 543 ft 37.40 °N, 79.11 °W | Updated 1 minute ago

Clear
Clear
76.1 °F
Feels Like 77 °F
N
0.9
Wind Variable Wind from SSW
Gusts 1.9 mph

Today
High -- | Low -- °F
--% Chance of Precip.
Yesterday
High -- | Low -- °F
Precip. -- in
Pressure 30.19 in
Visibility 10.0 miles
Clouds Clear
Heat Index 77 °F
Dew Point 70 °F
Humidity 81%
Rainfall 0.00 in
Snow Depth Not available.
6:43 AM 7:51 PM
Waning Crescent, 19% visible
METAR KLYH 280154Z 06006KT 10SM CLR 26/20 A3022 RMK AO2 SLP222 T02610200
Pressure 30.19 in
Visibility 10.0 miles
Clouds Clear
Heat Index 77 °F
Dew Point 70 °F
Humidity 81%
Rainfall 0.00 in
Snow Depth Not available.
6:43 AM 7:51 PM
Waning Crescent, 19% visible
METAR KLYH 280154Z 06006KT 10SM CLR 26/20 A3022 RMK AO2 SLP222 T02610200

10-Day Weather Forecast

Almanac

Astronomy

Aug. 27, 2016 Rise Set
Actual Time
Civil Twilight
Nautical Twilight
Astronomical Twilight
Moon
Length of Visible Light
Length of Day
Tomorrow will be .
, % of the Moon is Illuminated

Today's Extremes

State Highs State Lows

Community

WunderPhotos

Upload Photos

1,935,493 photos uploaded!

WunderBlog® & News

Nearby

Air Quality

  Air Quality AQ Index Pollutant
Not available.

Snow Depth

Station Depth Elevation

Earthquake Activity

City Distance Mag. Time & Date
Minimum magnitude displayed is 2.5.

Coastal Water Temperatures

Place Temperature

Stations

Nearby Weather Stations

Station Location Temp. Windchill Dew Point Humidity Wind Precip. Elev Updated Type
                   

Watches & Warnings

There are currently no watches in effect.